[[{"header":{"parameterUnit":"m.s-1","parameterCategory":1,"la1":30.2991,"la2":30.254,"lo1":-89.0895,"lo2":-89.0444,"dy":0.0017,"dx":0.0017,"nx":28,"ny":28,"refTime":"2024-03-02T03:00:00:Z","depth":0,"parameterNumber":2,"parameterNumberName":"U-component_of_WINDS"},"data":[0,0,0,0,0,0,0,0,0,0,0,0,0,0,0,0,0,0,0,0,0,0,0,0,0,0,0,0,0,0,0,0,0,0,0,0,0,0,0,0,0,0,0,0,0,0,0,0,0,0,0,0,0,0,0,0,0,0,0.1207,0.1207,0,0.1203,0.1203,0.1203,0.1221,0.1221,0.1222,0.1222,0.1218,0.1217,0.1217,0,0,0,0,0,0,0,0,0,0,0,0,0,0.1228,0.1228,0.1207,0.1207,0.1206,0.1203,0.1203,0.1203,0.1221,0.1221,0.1222,0.1223,0.1218,0.1218,0.1217,0,0,0,0,0,0,0,0,0,0,0,0,0,0.1221,0.1228,0.1207,0.1215,0.1216,0.1203,0.1203,0.1203,0.1221,0.1221,0.1222,0.1223,0.1218,0.1218,0.1217,0.1196,0,0,0.1214,0.1214,0,0,0,0,0,0,0,0,0.1222,0.122,0.1214,0.1214,0.1215,0.1213,0.1209,0.1201,0.122,0.1219,0.1222,0.1223,0.1216,0.1215,0.1213,0.1196,0.1195,0.1214,0.1213,0.1213,0.1213,0,0,0,0,0,0,0,0.1222,0.1221,0.1205,0.1214,0.1214,0.1219,0.1219,0.1208,0.1213,0.1219,0.122,0.122,0.1216,0.1214,0.1213,0.1195,0.1214,0.1213,0.1213,0.1212,0.1161,0.1161,0,0,0,0,0,0,0.1221,0.1221,0.1205,0.1205,0.122,0.1218,0.1218,0.1213,0.1213,0.1214,0.1219,0.122,0.1215,0.1214,0.1213,0.1188,0.1213,0.1212,0.1212,0.1162,0.1161,0.116,0,0,0,0,0,0,0.1222,0.122,0.1205,0.1213,0.1212,0.1217,0.1211,0.1213,0.121,0.1213,0.1214,0.1215,0.1215,0.1214,0.12,0.1188,0.1212,0.1211,0.1163,0.1162,0.1161,0.1138,0,0,0,0,0,0,0.1222,0.122,0.1212,0.1213,0.1211,0.1193,0.1211,0.1212,0.1208,0.121,0.121,0.1211,0.1216,0.1201,0.1199,0.1187,0.121,0.1164,0.1163,0.1161,0.114,0.1136,0.1133,0,0,0,0,0,0.1223,0.1205,0.1211,0.1209,0.1201,0.1192,0.1191,0.1198,0.1207,0.1199,0.1202,0.1211,0.119,0.12,0.1197,0.1185,0.1165,0.1163,0.1161,0.1142,0.1137,0.1133,0,0,0,0,0,0,0.1202,0.1206,0.1212,0.1194,0.1193,0.1195,0.1185,0.1193,0.1188,0.119,0.1198,0.1198,0.1182,0.1183,0.1193,0.1165,0.1179,0.1177,0.1165,0.1161,0.1158,0.1157,0.121,0,0,0,0,0,0.1195,0.1187,0.1191,0.1175,0.1174,0.118,0.1176,0.1181,0.118,0.1179,0.118,0.1178,0.1171,0.1166,0.116,0.1141,0.1141,0.1132,0.1128,0.1125,0.1123,0.1112,0.1108,0.1154,0.1154,0.1154,0,0,0.1181,0.1182,0.1177,0.1171,0.117,0.1162,0.1179,0.1169,0.1163,0.1177,0.1164,0.1165,0.1163,0.1147,0.1139,0.1146,0.111,0.1123,0.1121,0.1119,0.111,0.1105,0.1102,0.1153,0.1153,0.1153,0,0,0.1151,0.1151,0.1138,0.1137,0.1136,0.114,0.1137,0.1139,0.114,0.1127,0.1138,0.1131,0.1119,0.1117,0.1115,0.1086,0.1094,0.1084,0.1065,0.1055,0.1051,0.1048,0.1037,0.1033,0.1082,0.1081,0.1081,0,0.1133,0.1121,0.113,0.1119,0.1116,0.1131,0.1117,0.1116,0.1113,0.1111,0.1119,0.1105,0.1105,0.1088,0.1081,0.1079,0.1075,0.1083,0.1051,0.1048,0.1045,0.1035,0.1031,0.108,0.108,0.108,0.1081,0,0.1099,0.109,0.108,0.1077,0.1073,0.1061,0.1068,0.1063,0.107,0.1073,0.106,0.1061,0.1055,0.1052,0.1058,0.1036,0.104,0.105,0.1064,0.1039,0.1029,0.1026,0.1078,0.1079,0.1079,0.1079,0,0,0.1052,0.1056,0.1052,0.1051,0.1052,0.1046,0.1035,0.103,0.1025,0.1023,0.1014,0.1004,0.1014,0.1011,0.1017,0.1009,0.0985,0.1019,0.1019,0.1012,0.096,0.0951,0.0946,0.0991,0.099,0.099,0.0959,0,0.1022,0.1003,0.1012,0.0992,0.0984,0.0998,0.0989,0.0989,0.0992,0.0986,0.099,0.0982,0.0996,0.0994,0.0986,0.0989,0.0974,0.0992,0.0981,0.0981,0.0979,0.0941,0.0932,0.0903,0.0956,0.0955,0.0955,0,0.0983,0.098,0.0959,0.0962,0.0959,0.0951,0.0947,0.0941,0.0942,0.0945,0.0943,0.0951,0.0941,0.0956,0.0942,0.0954,0.095,0.0951,0.095,0.0948,0.0965,0.0936,0.0894,0.0889,0.0949,0.0949,0.095,0,0.0949,0.0941,0.0927,0.0926,0.093,0.0923,0.0925,0.0926,0.0922,0.092,0.0918,0.0914,0.0911,0.0908,0.0915,0.0926,0.0899,0.0915,0.0901,0.09,0.0892,0.0892,0.0847,0.0893,0.0893,0.0893,0.0894,0,0.0913,0.09,0.0913,0.0904,0.089,0.0901,0.0886,0.0889,0.089,0.0882,0.0895,0.0888,0.0899,0.0892,0.0898,0.0885,0.0884,0.0886,0.0887,0.0883,0.0883,0.088,0.0881,0.0892,0.0893,0.0893,0.0893,0,0.0872,0.0881,0.0867,0.0872,0.0873,0.0862,0.0867,0.0859,0.0864,0.0854,0.0853,0.086,0.0854,0.0861,0.0855,0.0859,0.0841,0.0846,0.084,0.0841,0.0826,0.0826,0.0775,0.0769,0.082,0.082,0.082,0,0.0847,0.0838,0.0842,0.0838,0.0839,0.0832,0.083,0.0841,0.0837,0.0837,0.0829,0.0824,0.082,0.0809,0.0813,0.0809,0.0813,0.0796,0.0812,0.0809,0.0811,0.0811,0.0809,0.0791,0.0791,0.079,0.079,0,0.0802,0.0807,0.0803,0.08,0.0796,0.0794,0.0793,0.0789,0.0801,0.0796,0.079,0.0787,0.0781,0.0775,0.0772,0.0774,0.0783,0.0785,0.0781,0.0776,0.0773,0.0773,0.0829,0.0786,0.0786,0.0786,0.0787,0.0787,0.0768,0.076,0.0762,0.0757,0.0757,0.0757,0.075,0.0755,0.075,0.0746,0.0753,0.0745,0.0746,0.0744,0.0744,0.0737,0.0745,0.0739,0.0738,0.0736,0.0733,0.0776,0.0737,0.0737,0.0737,0.0738,0.0738,0,0.0722,0.0725,0.072,0.0718,0.0714,0.0726,0.0726,0.0721,0.0714,0.0715,0.0711,0.0704,0.0699,0.0704,0.07,0.0694,0.0698,0.0692,0.0692,0.0692,0.0727,0.073,0.0689,0.0689,0.0689,0.0689,0.0689,0.0689,0.0697,0.0684,0.069,0.0677,0.068,0.0673,0.0672,0.0671,0.0672,0.0663,0.0659,0.0663,0.0666,0.0662,0.0658,0.066,0.0657,0.0649,0.0652,0.0684,0.0689,0.0694,0.0696,0.0649,0.0649,0.0617,0.0617,0.0616]},{"header":{"parameterUnit":"m.s-1","parameterCategory":1,"la1":30.2991,"la2":30.254,"lo1":-89.0895,"lo2":-89.0444,"dy":0.0017,"dx":0.0017,"nx":28,"ny":28,"refTime":"2024-03-02T03:00:00:Z","depth":0,"parameterNumber":3,"parameterNumberName":"V-component_of_WINDS"},"data":[0,0,0,0,0,0,0,0,0,0,0,0,0,0,0,0,0,0,0,0,0,0,0,0,0,0,0,0,0,0,0,0,0,0,0,0,0,0,0,0,0,0,0,0,0,0,0,0,0,0,0,0,0,0,0,0,0,0,2.8896,2.8899,0,2.9195,2.9199,2.9202,2.9293,2.9291,2.929,2.9288,2.9595,2.9604,2.9614,0,0,0,0,0,0,0,0,0,0,0,0,0,2.8402,2.841,2.8895,2.8899,2.8903,2.9195,2.9199,2.9203,2.9293,2.9291,2.9289,2.9287,2.9592,2.9603,2.9615,0,0,0,0,0,0,0,0,0,0,0,0,0,2.865,2.8413,2.8895,2.8983,2.8994,2.9194,2.9199,2.9204,2.9293,2.9291,2.9289,2.9287,2.9588,2.9602,2.9616,2.975,0,0,2.966,2.9666,0,0,0,0,0,0,0,0,2.8636,2.8668,2.8966,2.8977,2.899,2.9204,2.9137,2.9387,2.9294,2.918,2.9288,2.9285,2.9467,2.9491,2.9552,2.9765,2.9778,2.9661,2.967,2.9676,2.968,0,0,0,0,0,0,0,2.8619,2.8656,2.9014,2.897,2.8985,2.9008,2.9041,2.9185,2.9332,2.9189,2.9197,2.9231,2.9473,2.9538,2.956,2.9782,2.9661,2.9674,2.9683,2.9688,3.0121,3.0124,0,0,0,0,0,0,2.8586,2.8641,2.9005,2.9023,2.8804,2.9018,2.9055,2.9138,2.9331,2.9358,2.9232,2.9234,2.9515,2.9543,2.9571,2.9743,2.9676,2.969,2.9698,3.0119,3.0122,3.0125,0,0,0,0,0,0,2.8575,2.8618,2.8992,2.8834,2.8884,2.9029,2.9121,2.9145,2.921,2.9363,2.939,2.9272,2.9514,2.9551,2.9705,2.9754,2.9696,2.9709,3.0115,3.012,3.0124,3.0085,0,0,0,0,0,0,2.8561,2.8613,2.8666,2.8835,2.8892,2.9121,2.9124,2.9152,2.9235,2.9239,2.9408,2.9434,2.9515,2.9683,2.972,2.9773,2.972,3.0111,3.0117,3.0122,3.0082,3.0087,3.0091,0,0,0,0,0,2.8543,2.8642,2.8668,2.8711,2.896,2.9124,2.9157,2.9248,2.9238,2.9292,2.9391,2.9428,2.9742,2.9699,2.974,2.9798,3.0109,3.0116,3.0122,3.008,3.0086,3.0091,0,0,0,0,0,0,2.8475,2.8666,2.8697,2.8854,2.8972,2.9139,2.921,2.9251,2.9375,2.9375,2.9483,2.952,2.9667,2.9748,2.9696,2.9939,2.9927,2.9942,2.9881,2.9888,2.9892,2.9871,2.9732,0,0,0,0,0,2.8479,2.8596,2.8756,2.8879,2.8937,2.9063,2.9138,2.9198,2.9325,2.9376,2.9486,2.9608,2.9734,2.9815,2.994,3.0094,3.0133,3.0154,3.0159,3.0162,3.0174,3.0263,3.0275,3.0147,3.0147,3.0146,0,0,2.8487,2.8606,2.8673,2.8869,2.8968,2.9087,2.9104,2.923,2.932,2.9395,2.9548,2.9633,2.9776,2.9931,3.0005,3.0003,3.0218,3.017,3.0171,3.0183,3.0271,3.0283,3.0294,3.0151,3.015,3.0149,0,0,2.8563,2.8664,2.8779,2.8877,2.9027,2.911,2.9137,2.9299,2.9358,2.9513,2.9572,2.9681,2.9896,2.9996,3.0075,3.019,3.023,3.0227,3.0252,3.0337,3.0347,3.0357,3.04,3.0414,3.0239,3.0239,3.0239,0,2.8555,2.8737,2.8832,2.8956,2.904,2.9113,2.9231,2.9322,2.9504,2.9561,2.9556,2.9829,2.9931,3.0111,3.0139,3.02,3.0236,3.021,3.0338,3.0349,3.0359,3.0401,3.0417,3.0238,3.0238,3.0238,3.0238,0,2.872,2.8846,2.892,2.9095,2.9188,2.9307,2.9421,2.9504,2.9556,2.9639,2.9797,2.9921,3.0073,3.012,3.0172,3.0309,3.0303,3.0317,3.0307,3.0369,3.041,3.0427,3.0236,3.0236,3.0237,3.0237,0,0,2.8764,2.899,2.9016,2.9097,2.9267,2.9366,2.9488,2.9637,2.9707,2.983,2.9937,3.0117,3.0131,3.0221,3.0285,3.0359,3.0445,3.0365,3.037,3.0377,3.0605,3.0595,3.0612,3.0471,3.0474,3.0477,3.0594,0,2.8864,2.9087,2.9176,2.9357,2.9475,2.9546,2.9653,2.9769,2.985,2.9962,3.0052,3.0179,3.0187,3.0242,3.0319,3.0418,3.0492,3.041,3.0573,3.0578,3.0537,3.0634,3.0624,3.0728,3.061,3.0613,3.0615,0,2.9011,2.9135,2.9328,2.9485,2.9538,2.9632,2.9777,2.9882,3.0016,3.007,3.017,3.023,3.0362,3.0342,3.0527,3.0469,3.0541,3.0599,3.0605,3.0626,3.0601,3.0659,3.0763,3.0779,3.0641,3.0639,3.0637,0,2.9026,2.9241,2.9385,2.9452,2.9638,2.9703,2.9784,2.9915,2.9999,3.0125,3.0181,3.0319,3.0396,3.0503,3.0599,3.0575,3.0775,3.0763,3.0825,3.0823,3.0866,3.0862,3.0985,3.0908,3.0908,3.0907,3.0907,0,2.9129,2.9245,2.9395,2.9483,2.9615,2.9716,2.9844,2.9929,3.0046,3.0153,3.0222,3.0321,3.044,3.0555,3.0631,3.0773,3.0807,3.0855,3.0874,3.0851,3.0845,3.0901,3.0897,3.0912,3.0911,3.091,3.0909,0,2.9169,2.9274,2.9436,2.9599,2.9642,2.9732,2.9872,2.9961,3.0045,3.018,3.0217,3.035,3.0488,3.0594,3.0773,3.0825,3.0976,3.0996,3.0932,3.0942,3.0999,3.0993,3.1164,3.1192,3.1093,3.1094,3.1094,0,2.923,2.932,2.9493,2.9569,2.965,2.9772,2.9858,2.9961,3.0048,3.0207,3.0277,3.042,3.0541,3.0759,3.0871,3.101,3.1034,3.1085,3.1056,3.1029,3.1038,3.1032,3.1043,3.1089,3.1089,3.109,3.109,0,2.9326,2.9374,2.9495,2.9635,2.9736,2.9852,2.9968,3.0027,3.0151,3.0245,3.0388,3.0481,3.0665,3.0807,3.0956,3.104,3.1087,3.1098,3.112,3.1098,3.1058,3.1083,3.0944,3.1094,3.1094,3.1094,3.1093,3.1093,2.9381,2.9465,2.96,2.9733,2.9832,2.9939,3.0031,3.0127,3.0247,3.0405,3.0458,3.0605,3.0738,3.0944,3.1029,3.1146,3.1147,3.1179,3.1187,3.1194,3.1193,3.1037,3.1173,3.1173,3.1173,3.1173,3.1173,0,2.9483,2.9573,2.9694,2.9856,2.9961,2.9994,3.0125,3.0211,3.034,3.0459,3.0576,3.074,3.0878,3.1001,3.1145,3.1216,3.1241,3.125,3.1248,3.1267,3.1182,3.115,3.1228,3.1228,3.1228,3.1228,3.1228,3.1228,2.9548,2.9694,2.9757,2.9952,3.0042,3.0187,3.0259,3.0359,3.0455,3.0635,3.075,3.0829,3.0951,3.1104,3.1233,3.1266,3.1317,3.1321,3.1359,3.1279,3.1272,3.1266,3.1236,3.1331,3.1331,3.1434,3.1435,3.1436]}]]